Lid_Strength_Index
2 3 4 5 11 11 13 11 11 10 9 8 7 7 7 7 8 11 2 1 0 0 -0 -0 -0 -0 -1 -1 -1 -1 -1 -1 -1 -1 -1 -1 -1 -1 -1 -1 -1 -1 -2 -1 -1 -1 -1 -1 -2
4 3 5 8 12 15 14 11 11 10 7 6 5 6 6 8 4 4 3 1 0 0 -0 -0 -0 -0 -0 -1 -1 -1 -1 -1 -1 -1 -1 -1 -1 -1 -1 -1 -1 -2 -2 -2 -1 -1 -1 -1 -2
2 3 9 10 12 14 14 11 9 8 5 6 6 5 5 6 4 3 2 1 0 0 -0 -0 -0 -0 -0 -1 -1 -1 -1 -1 -1 -1 -1 -1 -1 -1 -1 -1 -1 -2 -2 -2 -1 -1 -1 -2 -2
5 7 8 12 13 11 11 10 8 7 6 6 7 7 4 3 3 2 1 0 1 0 -0 -0 0 -0 -0 -1 -1 -0 -0 -0 -0 -1 -1 -1 -1 -1 -1 -1 -1 -1 -2 -1 -1 -1 -2 -2 -2
7 9 12 12 12 10 9 8 8 7 7 6 6 6 7 3 1 1 1 1 2 2 -0 -0 0 0 -0 -1 -1 -0 -0 -0 -0 -1 -1 -1 -1 -1 -1 -1 -1 -1 -2 -2 -1 -2 -2 -1 -2
10 10 13 14 12 9 8 7 7 7 6 6 6 6 6 2 2 2 1 2 2 1 -0 -0 -0 -0 -0 -0 -0 0 -0 -0 -0 -0 -1 -1 -1 -1 -1 -1 -1 -1 -1 -1 -2 -1 -1 -1 -1
11 12 14 12 11 10 8 6 7 7 7 7 6 7 5 4 2 2 2 2 1 1 1 -0 -0 -0 0 1 0 0 0 0 -0 -0 -0 -0 -0 -1 -1 -1 -1 -1 -1 -1 -1 -1 -1 -1 -1
9 11 13 12 11 11 7 6 7 7 8 5 6 7 8 4 2 2 2 2 1 1 1 0 0 -0 -0 -0 1 0 0 0 0 -0 0 0 -0 -1 -1 -0 -1 -1 -1 -1 -1 -1 -1 -1 -1
8 12 13 12 11 9 6 8 7 6 7 6 5 6 4 2 2 3 3 3 2 1 1 1 0 0 0 0 -0 0 -0 0 0 -0 0 0 -0 -0 -0 -0 -0 -0 -0 -1 -1 -1 -1 -1 -1
10 13 12 9 9 8 8 10 8 8 7 6 6 4 3 2 3 3 3 3 4 2 2 2 1 0 0 -0 0 1 -0 -0 -0 -0 -0 -0 0 -0 -0 -0 0 -0 0 -0 -1 -1 -1 -1 0
10 11 9 8 7 8 9 8 7 8 8 7 6 6 5 5 4 4 3 3 3 2 1 2 1 1 0 0 0 0 0 0 -0 -0 -0 0 -0 -0 -0 0 1 1 0 0 0 0 0 0 0
11 8 8 7 7 8 9 8 8 8 7 6 6 6 6 6 5 5 4 3 3 2 2 1 1 1 0 1 0 1 1 0 0 -0 -0 0 1 1 1 1 1 2 2 2 2 2 2 1 0
9 9 8 7 7 8 7 8 8 7 7 6 5 5 6 6 6 6 6 5 2 2 2 1 1 1 0 1 1 0 0 0 0 0 -0 -0 1 1 1 1 1 1 2 1 2 2 2 1 2
8 8 8 7 8 7 8 8 9 7 6 6 6 6 6 6 5 6 6 5 4 2 2 1 1 1 0 0 1 1 0 0 0 -0 -0 -0 0 1 0 1 1 1 1 1 1 1 2 2 3
7 9 8 7 8 8 7 10 9 7 7 7 6 7 6 4 5 5 5 5 5 2 1 2 1 1 1 1 1 1 0 0 0 0 0 -0 0 1 1 1 2 1 0 1 1 2 3 4 4
11 11 13 8 7 6 8 11 8 7 8 8 7 7 6 5 5 5 5 5 4 5 2 1 1 1 1 1 1 1 1 1 1 1 1 0 0 1 2 1 1 1 1 1 3 4 5 5 5
11 15 12 10 7 8 9 11 8 7 8 7 8 7 6 6 6 6 4 4 4 4 2 2 1 2 2 2 1 1 1 1 1 2 1 1 1 0 2 2 1 1 2 3 3 4 5 6 5
13 12 12 12 9 8 10 10 8 7 8 7 8 7 7 7 7 6 5 4 4 3 2 1 1 2 2 1 1 2 1 2 1 1 1 1 0 0 2 2 2 2 3 3 3 4 5 6 5
10 11 12 10 8 9 10 10 9 8 8 8 8 8 8 7 6 5 3 3 3 3 2 2 2 1 1 2 2 2 3 3 4 4 3 2 2 2 2 2 3 3 3 4 4 4 7 6 6
10 11 11 9 8 8 10 10 9 8 7 7 7 8 8 6 5 4 5 5 3 3 2 2 2 1 1 1 3 3 5 6 6 6 7 6 5 4 3 4 4 4 4 4 5 5 6 5 5
9 11 11 11 9 9 10 11 11 8 8 7 8 7 6 5 5 4 4 4 3 4 4 2 2 2 2 3 5 6 7 7 7 8 8 8 8 8 7 6 6 6 5 5 6 5 5 6 5
12 8 9 10 11 14 10 16 12 10 9 8 8 8 7 5 5 4 4 4 4 5 6 3 2 2 2 4 5 5 6 7 7 8 8 8 8 9 9 8 8 8 8 8 7 8 7 6 6
10 8 9 10 12 13 13 15 13 9 10 9 8 6 6 5 5 5 5 4 4 5 7 6 3 3 4 4 4 5 6 7 8 10 11 10 9 8 9 9 8 8 8 8 8 8 8 7 7
7 9 10 11 12 17 13 14 15 12 10 9 7 6 6 5 5 5 4 4 4 3 4 7 6 6 5 7 6 5 7 9 10 11 11 11 11 9 9 9 8 8 8 7 7 7 7 7 7
9 11 17 19 19 19 12 14 13 9 8 8 8 7 6 6 6 5 5 5 5 5 5 5 7 9 8 7 7 8 7 9 9 10 11 11 11 11 10 9 9 9 9 9 9 9 8 9 9
11 12 17 22 21 17 11 15 12 8 7 6 6 6 6 6 5 6 5 5 5 5 4 5 6 8 8 8 9 9 9 10 10 10 10 10 10 10 9 10 9 10 9 9 9 9 9 9 9
11 13 10 15 14 17 15 12 9 8 8 7 7 6 7 6 6 5 5 5 5 5 5 4 5 6 7 8 8 8 9 9 10 10 9 10 9 9 9 9 9 9 10 9 9 9 9 8 8
10 9 15 14 20 22 16 15 14 11 10 8 8 7 7 6 5 5 5 4 4 4 4 5 4 5 6 6 7 8 8 8 8 9 9 9 9 9 9 9 9 9 9 10 10 11 8 8 9
12 12 12 13 15 20 21 16 10 10 9 9 8 7 7 7 6 5 5 4 4 4 4 4 4 4 4 5 6 6 7 8 8 9 9 9 9 9 8 9 9 10 10 10 10 10 9 8 8
9 11 12 17 17 15 16 16 8 8 8 8 8 7 7 7 6 5 5 4 4 4 4 5 5 5 4 4 4 5 6 7 7 8 8 8 8 7 8 8 9 9 9 10 10 9 8 9 9